Location: Newark
(34.9500°N, 139.9667°E)
Time: 01:52:35
(UTC+00:00)

Vanguard 2 Rocket - Visible Passes

Search period start: 07 December 2019 00:00
Search period end: 17 December 2019 00:00
Orbit: 554 x 3326 km, 32.9° (Epoch: 06 December)

Date Brightness Start Highest point End Pass type
(mag) Time Alt. Az. Time Alt. Az. Time Alt. Az.
07 Dec 9.0 08:13:43 10° SW 08:27:01 42° SSE 08:34:11 14° E visible
07 Dec 8.0 10:30:50 10° WSW 10:40:00 58° SW 10:40:00 58° SW visible
08 Dec 7.8 09:28:50 10° WSW 09:41:32 63° SSE 09:43:54 47° ESE visible
08 Dec 9.5 11:46:41 10° W 11:49:43 21° W 11:49:43 21° W visible
09 Dec 8.7 08:26:43 10° SW 08:41:13 56° SSE 08:47:47 19° E visible
09 Dec 8.2 10:44:53 10° W 10:53:36 54° WSW 10:53:36 54° WSW visible
10 Dec 7.7 09:42:40 10° WSW 09:55:44 74° S 09:57:29 59° ESE visible
10 Dec 9.7 12:00:54 10° W 12:03:18 18° W 12:03:18 18° W visible
11 Dec 8.5 08:40:14 10° WSW 08:55:23 68° SSE 09:01:22 24° E visible
11 Dec 8.4 10:59:03 10° W 11:07:10 48° W 11:07:10 48° W visible
12 Dec 9.1 07:37:51 10° SW 07:54:40 61° SSE 08:04:30 10° E visible
12 Dec 7.7 09:56:44 10° W 10:09:57 80° S 10:11:03 70° ESE visible
12 Dec 9.9 12:15:07 10° W 12:16:52 15° W 12:16:52 15° W visible
13 Dec 8.4 08:54:06 10° WSW 09:09:33 77° S 09:14:55 30° E visible
13 Dec 8.7 11:13:15 10° W 11:20:44 42° W 11:20:44 42° W visible
14 Dec 8.9 07:51:24 10° WSW 08:08:47 72° SSE 08:18:47 10° E visible
14 Dec 7.7 10:10:54 10° W 10:24:09 79° S 10:24:37 77° SSE visible
14 Dec 10.1 12:29:24 10° W 12:30:26 13° W 12:30:26 13° W visible
15 Dec 8.3 09:08:10 10° W 09:23:46 81° S 09:28:31 36° E visible
15 Dec 9.0 11:27:27 10° W 11:34:20 36° W 11:34:20 36° W visible
16 Dec 8.8 08:05:17 10° WSW 08:22:57 79° S 08:32:26 13° E visible
16 Dec 7.9 10:25:05 10° W 10:38:15 73° SSW 10:38:15 73° SSW visible
16 Dec 10.2 12:43:56 10° W 12:44:04 10° W 12:44:04 10° W visible
